Wind_Speed
23 23 25 25 24 24 23 22 22 22 24 26 29 32 35 38 41 42 42 41 41 41 43 43 44 47 49 50 52 54 56 59 66 68 65 62 61 59 55 51 50 47 42
24 25 26 26 25 24 23 23 23 25 27 28 31 34 37 40 42 42 41 41 41 42 43 44 46 48 50 51 53 56 59 60 62 65 61 58 55 51 49 45 42 39 38
25 26 26 26 25 25 24 24 26 27 29 31 34 36 39 41 42 42 41 41 42 43 45 47 49 51 52 53 56 58 59 58 57 58 57 52 50 44 41 41 42 39 37
25 26 26 25 24 24 25 26 26 29 31 33 35 37 40 41 41 41 41 42 43 44 46 48 50 52 54 56 58 59 58 55 52 51 51 50 45 41 41 44 42 32 38
25 25 25 24 24 25 25 26 28 31 32 33 36 39 40 40 40 41 42 43 45 46 47 49 51 52 54 56 56 55 53 51 47 45 46 45 40 40 41 38 39 37 33
24 24 22 23 24 25 25 28 30 31 32 34 37 38 39 39 40 41 44 45 47 48 50 50 52 53 54 54 51 49 47 44 40 41 44 40 39 40 36 38 39 40 40
22 21 22 22 23 25 27 29 30 30 32 35 36 37 37 39 41 42 44 46 48 49 50 52 53 54 53 51 48 45 42 37 35 38 39 36 38 34 37 37 37 41 44
19 19 21 22 24 25 27 27 28 31 33 34 35 36 38 40 42 44 46 48 49 50 51 52 53 52 49 48 45 43 39 34 32 32 33 31 32 34 35 38 42 44 44
18 20 21 22 22 23 24 26 29 30 32 33 35 37 39 41 43 45 48 49 50 52 52 51 51 49 46 42 41 40 36 31 30 30 27 28 28 30 36 40 40 43 41
17 17 18 18 20 22 24 26 28 30 30 32 35 38 41 42 44 46 48 51 53 54 51 49 46 43 40 38 38 38 36 32 29 23 25 25 29 31 33 35 35 37 38
13 14 15 18 20 21 24 26 27 29 32 33 36 38 41 44 46 47 48 51 53 53 51 46 42 39 37 36 35 33 33 32 27 27 24 27 30 31 32 30 29 32 33
12 13 16 18 20 22 24 25 27 30 33 35 37 38 40 43 46 48 50 51 51 50 46 41 38 37 36 34 32 31 30 28 29 28 28 30 31 31 30 26 26 28 28
11 14 16 18 20 22 23 26 29 32 34 37 39 40 41 43 46 49 50 49 48 45 42 38 36 35 34 30 29 28 27 28 28 29 30 32 32 30 26 26 24 26 24
13 14 16 18 19 21 24 27 30 33 36 38 41 42 44 47 50 51 50 48 44 42 40 38 35 34 31 28 25 24 26 27 29 31 32 32 29 27 25 27 28 27 25
13 14 16 17 20 23 26 29 31 35 38 40 43 45 49 51 51 51 49 46 44 42 40 36 32 30 26 24 22 23 24 26 28 30 30 27 26 27 25 26 27 26 26
13 14 16 19 22 25 27 30 33 35 38 41 43 47 48 49 48 46 45 42 41 39 36 32 30 28 26 24 23 23 25 27 28 27 25 28 30 30 28 25 26 26 24
13 16 18 21 24 26 29 31 31 32 36 40 44 46 46 45 44 43 42 39 38 35 31 28 27 25 23 23 25 26 26 25 24 26 29 30 31 29 29 27 26 24 21
15 17 20 23 25 28 30 33 35 38 39 39 42 44 42 40 39 39 39 36 31 29 27 25 24 23 23 24 25 24 22 22 25 27 28 29 29 29 28 27 25 23 21
16 19 22 24 27 30 32 34 36 39 42 44 44 41 40 38 36 35 35 33 29 24 23 22 22 23 23 23 23 21 22 24 26 27 26 26 27 28 26 25 23 22 20
18 20 23 26 29 31 33 35 38 41 43 43 42 41 40 38 36 33 30 28 24 22 21 20 21 22 21 21 21 21 22 24 25 25 24 24 25 26 25 24 24 23 20
20 23 25 28 30 32 35 38 40 42 42 40 39 39 38 37 36 31 27 23 21 20 19 19 20 20 21 21 21 23 24 25 25 23 21 23 25 23 23 23 22 21 21
22 25 27 29 31 34 37 39 41 41 39 38 38 37 35 34 30 26 23 19 19 19 20 19 19 20 21 21 22 24 25 26 24 22 22 24 24 24 23 22 20 20 20
24 27 29 32 34 36 38 40 40 38 36 37 37 35 33 28 25 22 18 17 17 18 19 19 19 19 21 21 23 26 27 25 23 24 24 24 25 26 24 22 20 18 18
26 29 32 34 36 37 39 39 37 36 36 36 35 33 28 25 22 17 15 15 16 17 18 19 20 20 20 21 22 24 25 25 24 23 25 26 26 24 22 18 16 17 17
29 31 33 36 37 38 38 36 35 35 36 35 33 28 25 21 16 14 13 14 15 15 17 19 20 20 20 22 23 24 23 23 23 23 23 24 22 20 17 14 15 15 15
30 33 35 37 39 39 37 35 35 35 34 32 29 25 22 16 12 10 11 12 12 14 17 18 18 20 20 21 21 21 22 22 22 23 24 25 22 18 14 13 14 15 14
Wind_Direction
224 225 222 222 221 223 226 236 249 263 275 286 295 301 305 309 311 312 312 312 313 315 316 315 314 313 313 313 312 312 312 312 310 312 311 311 308 306 308 309 307 305 305
221 222 222 222 222 225 232 244 257 269 280 291 297 301 306 309 310 311 312 314 315 315 314 314 313 313 314 313 314 314 313 312 312 312 311 310 308 311 309 305 306 312 313
217 220 222 222 226 231 241 253 263 275 286 293 298 302 307 309 309 311 314 314 315 315 314 314 315 315 317 316 315 314 313 313 312 312 313 310 311 314 311 314 313 318 313
216 219 219 224 231 239 249 260 272 281 288 294 299 304 306 307 311 312 314 314 314 315 316 317 318 318 318 316 316 316 314 315 314 313 309 310 319 320 315 315 315 318 313
215 217 221 228 238 247 258 269 278 284 292 296 301 303 306 310 312 313 313 314 316 316 318 319 319 318 317 319 317 314 314 314 314 310 310 313 318 314 316 315 316 315 315
215 218 226 236 245 256 267 275 281 288 293 298 301 305 309 311 312 313 315 316 317 319 320 321 320 319 319 317 314 312 312 314 313 311 309 317 318 317 316 315 317 318 319
215 222 233 244 256 265 272 278 285 291 295 299 304 308 311 312 314 315 316 318 319 320 321 321 321 320 317 315 312 311 312 317 314 310 313 318 314 315 315 317 318 317 321
217 230 243 253 261 269 275 282 288 292 297 303 308 310 312 314 316 317 318 320 320 321 322 323 320 318 316 315 315 313 317 318 312 313 315 317 315 318 317 316 319 320 322
226 238 250 259 266 272 278 285 289 297 304 308 309 311 315 316 317 319 320 321 322 322 323 321 319 318 318 318 315 316 320 320 317 317 315 316 317 319 319 318 319 317 321
236 246 255 261 268 276 283 291 299 304 307 309 312 316 316 318 320 320 321 322 323 322 321 321 320 318 319 319 319 321 321 322 321 318 322 322 322 323 317 314 317 319 325
242 248 255 265 276 286 293 300 305 306 308 314 315 317 319 320 321 321 322 323 323 322 322 323 321 320 322 323 322 321 321 322 323 323 325 325 323 319 319 317 317 323 328
240 256 271 280 287 296 302 304 306 310 313 314 317 318 319 320 320 321 323 324 322 322 321 324 323 325 326 325 323 321 321 321 324 327 327 324 324 324 321 320 323 324 328
264 275 282 292 301 302 303 308 311 313 315 316 318 319 319 320 322 323 324 324 322 321 323 326 327 327 327 325 324 323 324 324 324 323 325 328 328 328 325 322 325 324 331
276 288 296 299 300 305 310 312 313 315 316 317 318 320 322 325 325 324 325 325 322 324 328 329 330 328 328 328 327 323 320 321 323 325 326 326 328 331 330 325 325 326 330
288 295 299 303 309 311 312 313 314 315 316 319 322 325 327 327 326 326 326 326 326 327 328 328 325 327 329 329 327 325 323 322 323 324 324 325 329 332 333 328 327 330 333
299 302 308 310 310 310 312 314 316 319 321 322 324 326 326 326 326 325 325 326 326 327 329 327 328 330 332 331 329 329 328 326 327 329 331 332 333 334 332 333 332 331 333
308 310 308 308 309 310 313 314 316 318 322 324 324 324 325 327 325 324 325 327 328 327 328 327 329 332 332 332 333 333 334 334 335 335 334 333 333 337 336 335 335 334 337
306 306 306 309 312 314 315 318 320 323 325 325 324 324 326 325 324 325 326 328 329 325 328 329 333 334 334 337 338 340 342 340 337 337 335 336 337 338 339 339 338 338 338
306 308 312 313 314 317 319 322 324 326 326 326 326 327 326 328 328 328 327 328 329 331 334 335 335 337 339 342 344 346 344 342 341 341 339 338 341 342 343 345 346 344 341
312 312 313 316 318 320 322 325 326 326 325 325 327 329 330 329 329 331 330 329 332 336 341 339 338 339 341 343 345 344 343 341 342 343 343 346 348 346 345 349 350 351 348
314 316 319 319 321 324 325 326 325 324 325 328 330 331 332 331 332 333 332 333 336 343 342 342 341 342 343 344 345 345 345 348 348 350 350 351 348 348 347 348 350 350 350
319 320 320 322 325 325 325 324 325 326 328 329 331 332 332 331 331 332 335 338 343 344 343 347 349 347 347 347 346 347 350 352 352 351 347 345 345 349 349 346 348 350 352
321 322 324 325 325 325 325 324 325 327 328 330 331 332 331 330 331 334 339 343 345 345 347 352 353 352 348 349 348 348 349 349 350 347 344 343 345 349 350 347 348 353 355
323 326 326 325 325 324 325 326 328 329 330 330 331 331 331 331 333 340 344 348 347 349 354 358 357 356 356 355 354 353 352 351 351 351 350 347 344 343 345 349 354 359 4
327 326 325 324 324 325 327 329 329 329 330 330 330 331 332 333 337 343 349 350 353 358 2 3 0 0 1 1 1 1 3 4 1 359 355 350 348 347 350 357 4 7 15
326 325 325 325 326 328 329 330 329 329 328 329 330 330 332 336 341 349 354 354 0 6 10 6 3 5 5 7 8 11 13 11 11 9 5 4 2 360 5 17 23 25 31
Height
3046 3049 3053 3056 3059 3062 3065 3067 3069 3069 3068 3067 3065 3061 3057 3053 3048 3043 3038 3032 3027 3021 3015 3009 3003 2997 2991 2983 2976 2968 2959 2951 2939 2937 2925 2919 2907 2897 2889 2881 2872 2867 2864
3041 3045 3049 3052 3056 3059 3061 3063 3064 3063 3062 3060 3057 3054 3049 3045 3039 3034 3029 3023 3018 3013 3007 3000 2993 2986 2979 2971 2963 2955 2946 2938 2926 2916 2914 2903 2893 2887 2878 2871 2863 2858 2852
3036 3041 3045 3049 3052 3055 3057 3058 3058 3057 3055 3053 3050 3046 3041 3035 3030 3025 3020 3014 3009 3003 2996 2989 2981 2974 2967 2959 2950 2941 2932 2924 2915 2902 2894 2889 2882 2875 2865 2859 2852 2848 2841
3033 3038 3042 3045 3048 3051 3052 3052 3052 3050 3049 3046 3042 3037 3032 3028 3022 3016 3011 3006 3000 2993 2986 2978 2970 2962 2954 2946 2936 2926 2917 2910 2902 2891 2882 2876 2870 2864 2856 2847 2842 2840 2831
3029 3034 3038 3042 3045 3046 3047 3047 3046 3044 3041 3038 3033 3029 3024 3019 3013 3008 3002 2997 2990 2983 2975 2967 2960 2951 2943 2933 2923 2914 2905 2898 2891 2882 2872 2867 2862 2855 2848 2841 2834 2829 2825
3026 3031 3035 3038 3040 3041 3041 3040 3039 3037 3033 3029 3025 3021 3015 3010 3005 3000 2993 2986 2979 2971 2964 2957 2949 2940 2931 2923 2914 2904 2896 2889 2882 2873 2864 2859 2853 2846 2841 2834 2826 2819 2813
3024 3028 3031 3033 3035 3035 3035 3034 3031 3029 3025 3022 3017 3012 3007 3002 2997 2990 2983 2976 2969 2961 2954 2946 2936 2927 2919 2911 2903 2895 2888 2882 2873 2864 2856 2852 2844 2840 2832 2826 2821 2812 2804
3020 3024 3027 3029 3029 3029 3028 3026 3024 3021 3018 3013 3009 3004 3000 2993 2987 2981 2974 2966 2959 2951 2943 2934 2925 2916 2908 2899 2891 2884 2879 2872 2864 2858 2851 2845 2839 2832 2826 2818 2810 2803 2798
3017 3020 3022 3023 3023 3023 3022 3020 3017 3014 3010 3006 3001 2996 2991 2985 2979 2971 2963 2956 2949 2940 2933 2924 2915 2905 2897 2889 2881 2873 2868 2862 2857 2851 2846 2840 2834 2827 2819 2810 2805 2796 2789
3014 3016 3018 3018 3018 3017 3016 3013 3011 3007 3003 3000 2994 2988 2982 2976 2969 2962 2954 2945 2937 2930 2923 2914 2905 2896 2888 2881 2871 2863 2857 2854 2849 2845 2840 2834 2828 2822 2815 2806 2798 2791 2784
3011 3012 3013 3013 3012 3011 3009 3007 3004 3000 2997 2992 2988 2981 2974 2966 2959 2952 2945 2936 2926 2918 2910 2903 2895 2887 2879 2871 2864 2857 2851 2846 2842 2838 2834 2829 2823 2817 2809 2802 2795 2787 2780
3008 3009 3008 3008 3007 3006 3003 3001 2997 2994 2989 2984 2979 2974 2967 2960 2952 2944 2935 2927 2917 2908 2901 2894 2886 2878 2871 2864 2857 2852 2846 2841 2836 2831 2827 2823 2816 2809 2802 2796 2791 2784 2778
3004 3005 3004 3004 3002 3000 2997 2994 2991 2986 2981 2976 2970 2965 2959 2952 2944 2934 2926 2918 2909 2901 2893 2885 2877 2871 2864 2858 2852 2846 2841 2836 2831 2826 2821 2815 2809 2803 2796 2790 2786 2779 2775
3001 3001 3000 2999 2997 2995 2992 2988 2983 2979 2973 2968 2962 2955 2949 2941 2931 2923 2915 2908 2900 2891 2883 2876 2869 2863 2857 2851 2847 2842 2837 2831 2825 2820 2815 2809 2803 2797 2791 2784 2779 2773 2769
2998 2997 2996 2994 2992 2989 2985 2981 2977 2971 2965 2959 2952 2945 2936 2929 2921 2912 2904 2896 2888 2881 2874 2869 2863 2858 2853 2848 2843 2838 2833 2827 2822 2816 2810 2804 2799 2792 2787 2780 2774 2769 2763
2995 2993 2991 2989 2986 2983 2980 2975 2970 2964 2958 2951 2945 2937 2930 2921 2912 2904 2897 2890 2881 2874 2869 2863 2858 2852 2847 2843 2839 2834 2829 2823 2817 2811 2806 2799 2793 2787 2781 2776 2770 2764 2759
2990 2988 2986 2984 2981 2978 2974 2970 2966 2961 2953 2945 2937 2930 2922 2914 2906 2898 2890 2884 2876 2869 2864 2859 2853 2848 2844 2839 2834 2829 2824 2818 2813 2808 2802 2796 2790 2784 2777 2771 2766 2761 2756
2986 2984 2982 2979 2976 2971 2967 2962 2956 2950 2945 2940 2932 2923 2916 2909 2900 2892 2884 2877 2872 2865 2860 2854 2850 2845 2840 2835 2830 2825 2820 2815 2810 2804 2799 2792 2786 2780 2774 2768 2763 2757 2753
2983 2980 2977 2973 2970 2965 2960 2954 2948 2942 2935 2928 2922 2916 2908 2900 2892 2885 2877 2871 2866 2862 2857 2851 2846 2841 2837 2831 2827 2822 2817 2812 2806 2800 2795 2789 2783 2777 2772 2766 2760 2755 2750
2978 2975 2972 2968 2963 2958 2952 2947 2941 2934 2928 2921 2913 2906 2899 2893 2885 2879 2873 2867 2862 2858 2853 2849 2843 2838 2834 2829 2824 2819 2815 2809 2803 2798 2792 2787 2781 2776 2770 2764 2759 2754 2749
2973 2970 2966 2961 2957 2951 2946 2939 2933 2927 2920 2913 2906 2898 2891 2884 2878 2872 2868 2863 2859 2855 2850 2846 2841 2836 2831 2827 2823 2818 2812 2807 2801 2795 2790 2785 2779 2774 2769 2763 2758 2753 2748
2968 2964 2960 2956 2950 2944 2938 2932 2926 2919 2912 2905 2899 2892 2885 2879 2874 2868 2864 2860 2856 2852 2847 2843 2839 2834 2829 2825 2820 2815 2810 2804 2799 2794 2789 2784 2778 2773 2767 2762 2757 2753 2748
2963 2959 2954 2948 2943 2938 2932 2925 2919 2912 2905 2899 2892 2886 2881 2875 2870 2865 2861 2858 2854 2850 2846 2841 2837 2833 2829 2824 2819 2813 2808 2803 2798 2793 2788 2783 2777 2771 2766 2761 2756 2752 2748
2957 2952 2947 2942 2936 2931 2925 2918 2911 2904 2898 2892 2886 2881 2875 2870 2866 2862 2859 2856 2852 2848 2844 2841 2836 2832 2828 2823 2818 2813 2807 2802 2797 2792 2786 2780 2775 2770 2766 2761 2756 2752 2749
2951 2946 2941 2935 2929 2923 2917 2910 2904 2898 2891 2886 2881 2876 2871 2866 2863 2860 2857 2854 2851 2848 2844 2840 2836 2832 2828 2823 2817 2813 2808 2803 2798 2793 2787 2781 2775 2770 2765 2761 2757 2753 2750
2945 2940 2934 2928 2921 2915 2908 2903 2897 2891 2885 2880 2875 2871 2867 2863 2861 2859 2856 2854 2851 2848 2844 2841 2837 2832 2828 2823 2819 2814 2810 2805 2800 2793 2787 2781 2775 2770 2766 2762 2758 2755 2752